Sparta, TN

6:02 PM CST on December 09, 2019 (GMT -0600)
Upper Cumberland Regional

Weather History for KSRB - October, 2019

Change the Weather History Date:

Sunday, October 6, 2019

  Actual Average (WUND) Record (WUND)
Temperature  
Mean Temperature 74 °F -  
Max Temperature 82 °F - - (-1)
Min Temperature 66 °F - - (-1)
Cooling Degree Days 9    
Growing Degree Days 24 (Base 50)    
Moisture  
Dew Point 63 °F    
Average Humidity 72    
Maximum Humidity 88    
Minimum Humidity 54    
Precipitation  
Precipitation 0.00 in - - ()
Sea Level Pressure  
Sea Level Pressure 30.12 in    
Wind  
Wind Speed 8 mph ()    
Max Wind Speed 15 mph    
Max Gust Speed 20 mph    
Visibility 10.0 miles    
Events      
Averages and records for this station are not official NWS values.
T = Trace of Precipitation, MM = Missing Value Source: Averaged Metar Reports

Daily Weather History Graph

Daily Weather History Graph

Search for Another Location

Airport or City:

Astronomy

Oct. 06, 2019 Rise Set
Actual Time 6:41 AM CDT 6:18 PM CDT
Civil Twilight 6:15 AM CDT 6:44 PM CDT
Nautical Twilight 5:45 AM CDT 7:14 PM CDT
Astronomical Twilight 5:15 AM CDT 7:43 PM CDT
Moon 2:43 PM CDT (10/6) No Moon Set
Length of Visible Light 12h 29m
Length of Day
11h 37m
First Quarter, 60% of the Moon is Illuminated
Oct 6
First Quarter
Oct 13
Full
Oct 21
Last Quarter
Oct 27
New
Nov 4
First Quarter

Hourly Weather History & Observations

Time (CDT) Temp. Heat Index Dew Point Humidity Pressure Visibility Wind Dir Wind Speed Gust Speed Precip Events Conditions
12:15 AM 69.8 °F - 62.6 °F 78% 30.07 in 10.0 mi SE 10.4 mph - N/A   Mostly Cloudy
12:35 AM 69.8 °F - 62.6 °F 78% 30.08 in 10.0 mi SSE 9.2 mph 16.1 mph N/A   Scattered Clouds
12:55 AM 69.8 °F - 62.6 °F 78% 30.09 in 10.0 mi SSE 11.5 mph - N/A   Clear
1:15 AM 69.8 °F - 62.6 °F 78% 30.10 in 10.0 mi SSE 11.5 mph - N/A   Partly Cloudy
1:35 AM 68.0 °F - 62.6 °F 83% 30.10 in 10.0 mi South 9.2 mph 16.1 mph N/A   Mostly Cloudy
1:55 AM 68.0 °F - 62.6 °F 83% 30.09 in 10.0 mi North - - N/A   Mostly Cloudy
2:15 AM 68.0 °F - 62.6 °F 83% 30.08 in 10.0 mi SSE 9.2 mph 17.3 mph N/A   Partly Cloudy
2:35 AM 68.0 °F - 62.6 °F 83% 30.09 in 10.0 mi South 8.1 mph 16.1 mph N/A   Partly Cloudy
2:55 AM 68.0 °F - 62.6 °F 83% 30.09 in 10.0 mi South 9.2 mph 16.1 mph N/A   Mostly Cloudy
3:15 AM 68.0 °F - 62.6 °F 83% 30.10 in 10.0 mi South 6.9 mph - N/A   Overcast
3:35 AM 68.0 °F - 62.6 °F 83% 30.10 in 10.0 mi South 6.9 mph - N/A   Overcast
3:55 AM 68.0 °F - 62.6 °F 83% 30.10 in 10.0 mi SSE 8.1 mph - N/A   Mostly Cloudy
4:15 AM 68.0 °F - 62.6 °F 83% 30.10 in 10.0 mi South 6.9 mph 12.7 mph N/A   Scattered Clouds
4:35 AM 68.0 °F - 62.6 °F 83% 30.11 in 10.0 mi South 8.1 mph 15.0 mph N/A   Scattered Clouds
4:55 AM 68.0 °F - 62.6 °F 83% 30.11 in 10.0 mi SSE 8.1 mph 13.8 mph N/A   Overcast
5:15 AM 68.0 °F - 62.6 °F 83% 30.11 in 10.0 mi SSE 9.2 mph 17.3 mph N/A   Overcast
5:35 AM 68.0 °F - 62.6 °F 83% 30.12 in 10.0 mi South 9.2 mph 15.0 mph N/A   Overcast
5:55 AM 68.0 °F - 62.6 °F 83% 30.12 in 10.0 mi South 8.1 mph 17.3 mph N/A   Mostly Cloudy
6:15 AM 68.0 °F - 62.6 °F 83% 30.13 in 10.0 mi South 11.5 mph 17.3 mph N/A   Partly Cloudy
6:35 AM 66.2 °F - 62.6 °F 88% 30.15 in 10.0 mi South 10.4 mph 16.1 mph N/A   Partly Cloudy
6:55 AM 68.0 °F - 62.6 °F 83% 30.15 in 10.0 mi South 11.5 mph 17.3 mph N/A   Mostly Cloudy
7:15 AM 68.0 °F - 62.6 °F 83% 30.16 in 10.0 mi South 5.8 mph 12.7 mph N/A   Overcast
7:35 AM 68.0 °F - 62.6 °F 83% 30.17 in 10.0 mi South 8.1 mph 16.1 mph N/A   Overcast
7:55 AM 69.8 °F - 62.6 °F 78% 30.17 in 10.0 mi South 9.2 mph 15.0 mph N/A   Overcast
8:15 AM 69.8 °F - 62.6 °F 78% 30.17 in 10.0 mi SSE 9.2 mph 16.1 mph N/A   Overcast
8:35 AM 69.8 °F - 62.6 °F 78% 30.17 in 10.0 mi South 11.5 mph 17.3 mph N/A   Scattered Clouds
8:55 AM 71.6 °F - 62.6 °F 73% 30.17 in 10.0 mi South 11.5 mph 17.3 mph N/A   Partly Cloudy
9:15 AM 73.4 °F - 62.6 °F 69% 30.17 in 10.0 mi South 9.2 mph - N/A   Scattered Clouds
9:35 AM 73.4 °F - 62.6 °F 69% 30.17 in 10.0 mi South 11.5 mph 17.3 mph N/A   Scattered Clouds
9:55 AM 75.2 °F - 64.4 °F 69% 30.18 in 10.0 mi South 10.4 mph - N/A   Scattered Clouds
10:15 AM 75.2 °F - 64.4 °F 69% 30.18 in 10.0 mi South 10.4 mph 17.3 mph N/A   Mostly Cloudy
10:35 AM 77.0 °F - 64.4 °F 65% 30.18 in 10.0 mi South 8.1 mph - N/A   Mostly Cloudy
10:55 AM 77.0 °F - 64.4 °F 65% 30.18 in 10.0 mi SW 15.0 mph - N/A   Mostly Cloudy
11:15 AM 77.0 °F - 64.4 °F 65% 30.18 in 10.0 mi SW 10.4 mph - N/A   Mostly Cloudy
11:35 AM 78.8 °F - 64.4 °F 61% 30.18 in 10.0 mi SSW 12.7 mph - N/A   Overcast
11:55 AM 78.8 °F - 64.4 °F 61% 30.18 in 10.0 mi Variable 6.9 mph 13.8 mph N/A   Mostly Cloudy
12:15 PM 78.8 °F - 64.4 °F 61% 30.17 in 10.0 mi Variable 4.6 mph - N/A   Overcast
12:35 PM 80.6 °F 82.3 °F 64.4 °F 58% 30.16 in 10.0 mi WSW 5.8 mph - N/A   Overcast
12:55 PM 80.6 °F 82.3 °F 64.4 °F 58% 30.16 in 10.0 mi Variable 4.6 mph - N/A   Overcast
1:15 PM 80.6 °F 82.3 °F 64.4 °F 58% 30.15 in 10.0 mi Variable 4.6 mph - N/A   Overcast
1:35 PM 80.6 °F 82.3 °F 64.4 °F 58% 30.14 in 10.0 mi SSE 6.9 mph - N/A   Mostly Cloudy
1:55 PM 80.6 °F 82.3 °F 64.4 °F 58% 30.13 in 10.0 mi Variable 6.9 mph - N/A   Mostly Cloudy
2:15 PM 82.4 °F 83.9 °F 64.4 °F 54% 30.12 in 10.0 mi Variable 6.9 mph 12.7 mph N/A   Overcast
2:35 PM 80.6 °F 82.3 °F 64.4 °F 58% 30.11 in 10.0 mi South 12.7 mph - N/A   Mostly Cloudy
2:55 PM 82.4 °F 83.9 °F 64.4 °F 54% 30.10 in 10.0 mi SSE 10.4 mph - N/A   Mostly Cloudy
3:15 PM 82.4 °F 83.9 °F 64.4 °F 54% 30.10 in 10.0 mi South 11.5 mph - N/A   Mostly Cloudy
3:35 PM 82.4 °F 83.9 °F 64.4 °F 54% 30.09 in 10.0 mi SSE 12.7 mph - N/A   Mostly Cloudy
3:55 PM 82.4 °F 83.9 °F 64.4 °F 54% 30.09 in 10.0 mi SSE 10.4 mph 19.6 mph N/A   Partly Cloudy
4:15 PM 80.6 °F 82.3 °F 64.4 °F 58% 30.09 in 10.0 mi SSE 13.8 mph - N/A   Partly Cloudy
4:35 PM 80.6 °F 82.3 °F 64.4 °F 58% 30.09 in 10.0 mi South 10.4 mph 17.3 mph N/A   Partly Cloudy
4:55 PM 78.8 °F - 62.6 °F 57% 30.09 in 10.0 mi South 11.5 mph 17.3 mph N/A   Mostly Cloudy
5:15 PM 78.8 °F - 64.4 °F 61% 30.09 in 10.0 mi Variable 6.9 mph - N/A   Overcast
5:35 PM 78.8 °F - 64.4 °F 61% 30.10 in 10.0 mi SSE 9.2 mph - N/A   Mostly Cloudy
5:55 PM 77.0 °F - 64.4 °F 65% 30.09 in 10.0 mi South 8.1 mph - N/A   Scattered Clouds
6:15 PM 77.0 °F - 62.6 °F 61% 30.09 in 10.0 mi SSE 11.5 mph - N/A   Partly Cloudy
6:35 PM 75.2 °F - 62.6 °F 65% 30.10 in 10.0 mi SSE 10.4 mph - N/A   Partly Cloudy
6:55 PM 75.2 °F - 62.6 °F 65% 30.10 in 10.0 mi South 9.2 mph 15.0 mph N/A   Partly Cloudy
7:15 PM 73.4 °F - 62.6 °F 69% 30.10 in 10.0 mi South 9.2 mph - N/A   Clear
7:35 PM 73.4 °F - 62.6 °F 69% 30.10 in 10.0 mi SSE 10.4 mph 19.6 mph N/A   Clear
7:55 PM 73.4 °F - 62.6 °F 69% 30.11 in 10.0 mi South 8.1 mph - N/A   Clear
8:15 PM 71.6 °F - 62.6 °F 73% 30.11 in 10.0 mi South 8.1 mph - N/A   Clear
8:35 PM 71.6 °F - 62.6 °F 73% 30.12 in 10.0 mi South 4.6 mph - N/A   Clear
8:55 PM 71.6 °F - 62.6 °F 73% 30.11 in 10.0 mi South 3.5 mph - N/A   Clear
9:15 PM 69.8 °F - 62.6 °F 78% 30.11 in 10.0 mi South 3.5 mph - N/A   Clear
9:35 PM 69.8 °F - 62.6 °F 78% 30.11 in 10.0 mi South 5.8 mph - N/A   Clear
9:55 PM 69.8 °F - 62.6 °F 78% 30.10 in 10.0 mi South 4.6 mph - N/A   Clear
10:15 PM 69.8 °F - 62.6 °F 78% 30.11 in 10.0 mi South 4.6 mph - N/A   Clear
10:35 PM 68.0 °F - 62.6 °F 83% 30.11 in 10.0 mi SSW 3.5 mph - N/A   Clear
10:55 PM 66.2 °F - 62.6 °F 88% 30.12 in 10.0 mi Calm Calm - N/A   Clear
11:15 PM 68.0 °F - 62.6 °F 83% 30.14 in 10.0 mi Calm Calm - N/A   Scattered Clouds
11:35 PM 68.0 °F - 64.4 °F 88% 30.14 in 10.0 mi Calm Calm - N/A   Overcast
11:55 PM 68.0 °F - 64.4 °F 88% 30.15 in 10.0 mi Calm Calm - N/A   Overcast